Location: Alberta Star Party
(51.6612°N, 112.9089°W)
Time: 03:22:10
(UTC-07:00)

Amateur Radio Satellites - All Passes

Search period start: 05 March 2015 02:52
Search period end: 06 March 2015 02:52
Location: Alberta Star Party, 51.6612°N, 112.9089°W

Satellite Date Start Highest point End Downlink Frequencies (MHz)
Time Altitude Azimuth
BEESAT 3 05 Mar 02:58:24 03:00:01 12° 249° (WSW) 03:01:27 437.485
JAS-2 05 Mar 02:59:04 03:01:47 12° 76° (ENE) 03:05:02 435.910
HORYU 2 05 Mar 03:04:25 03:07:19 17° 88° (E) 03:10:21 437.375
SO-50 05 Mar 03:07:59 03:12:35 50° 321° (NW) 03:17:19 436.795
AO-7 05 Mar 03:13:04 03:18:30 19° 84° (E) 03:24:16 29.400- 29.500
RS-15 05 Mar 03:18:57 03:29:22 44° 349° (N) 03:40:08 29.354- 29.394
YUBILEINY 05 Mar 03:20:59 03:29:54 84° 79° (E) 03:38:46 435.215
Gurwin Techsat 1B 05 Mar 03:33:29 03:38:51 87° 291° (WNW) 03:44:12 435.225
AIST 2 05 Mar 03:38:22 03:40:45 14° 248° (WSW) 03:42:58 435.215
Oscar 19 05 Mar 03:42:30 03:46:44 26° 300° (WNW) 03:50:54 437.125/150
ITAMSAT 1 05 Mar 03:46:03 03:51:12 57° 292° (WNW) 03:56:17 435.822/435.867
PCSat 05 Mar 04:16:11 04:21:28 49° 43° (NE) 04:26:44 145.827
MOZHAYETS 4 05 Mar 04:20:12 04:24:47 89° 242° (WSW) 04:29:25
AUBIESAT-1 05 Mar 04:23:28 04:26:35 34° 257° (WSW) 04:29:54 437.475
M-CUBED/EXP-1 PRIME 05 Mar 04:23:57 04:27:00 30° 258° (WSW) 04:30:12 437.505
STRAND 1 05 Mar 04:25:25 04:27:33 13° 49° (NE) 04:29:52 437.568
PRISM 05 Mar 04:28:40 04:30:49 14° 56° (NE) 04:33:07 437.425
HORYU 2 05 Mar 04:40:03 04:44:30 67° 288° (WNW) 04:48:56 437.375
JAS-2 05 Mar 04:41:21 04:48:35 54° 98° (E) 04:56:15 435.910
SO-50 05 Mar 04:50:31 04:54:11 21° 345° (NNW) 04:57:54 436.795
CUBESAT XI-V 05 Mar 04:50:52 04:54:29 23° 60° (ENE) 04:58:11 437.345
AO-7 05 Mar 05:04:35 05:12:56 75° 107° (ESE) 05:21:13 29.400- 29.500
Gurwin Techsat 1B 05 Mar 05:14:34 05:18:12 19° 306° (NW) 05:21:41 435.225
YUBILEINY 05 Mar 05:18:44 05:25:50 27° 281° (W) 05:32:40 435.215
ITAMSAT 1 05 Mar 05:27:29 05:29:45 13° 311° (NW) 05:31:49 435.822/435.867
RS-15 05 Mar 05:33:52 05:44:38 49° 22° (NNE) 05:55:53 29.354- 29.394
GONETS M04 05 Mar 05:39:44 05:40:40 10° 29° (NNE) 05:41:58
Cubesat XI-IV 05 Mar 05:54:47 05:58:54 22° 89° (E) 06:03:06 437.490
PCSat 05 Mar 05:59:48 06:04:52 39° 244° (WSW) 06:09:51 145.827
MOZHAYETS 4 05 Mar 06:00:33 06:02:48 13° 276° (W) 06:04:53
STRAND 1 05 Mar 06:00:47 06:05:50 59° 69° (ENE) 06:10:56 437.568
PRISM 05 Mar 06:01:35 06:05:45 90° 253° (WSW) 06:09:59 437.425
CUTE-I 05 Mar 06:02:47 06:07:09 25° 91° (E) 06:11:36 437.470
AIST 1 05 Mar 06:05:41 06:08:00 14° 83° (E) 06:10:28
HORYU 2 05 Mar 06:18:41 06:20:25 12° 307° (NW) 06:21:59 437.375
JAS-2 05 Mar 06:26:40 06:33:33 45° 297° (WNW) 06:40:49 435.910
CUBESAT XI-V 05 Mar 06:26:55 06:31:34 61° 259° (W) 06:36:18 437.345
SO-50 05 Mar 06:32:54 06:36:21 19° 9° (N) 06:39:53 436.795
AO-7 05 Mar 06:57:54 07:05:14 36° 310° (NW) 07:12:28 29.400- 29.500
GONETS M04 05 Mar 07:33:37 07:41:18 33° 59° (ENE) 07:49:07
Cubesat XI-IV 05 Mar 07:34:11 07:39:34 68° 290° (WNW) 07:44:53 437.490
PRISM 05 Mar 07:40:25 07:41:59 12° 275° (W) 07:43:23 437.425
AIST 1 05 Mar 07:40:44 07:45:07 75° 281° (W) 07:49:34
STRAND 1 05 Mar 07:41:14 07:45:27 24° 269° (W) 07:49:36 437.568
CUTE-I 05 Mar 07:42:22 07:47:41 60° 291° (WNW) 07:52:56 437.470
RS-15 05 Mar 07:46:56 07:58:18 86° 230° (SW) 08:10:11 29.354- 29.394
O/OREOS (USA 219) 05 Mar 08:01:27 08:02:25 11° 97° (E) 08:03:39 437.305
JAS-2 05 Mar 08:13:26 08:17:07 14° 318° (NW) 08:20:37 435.910
SO-50 05 Mar 08:13:40 08:18:13 36° 32° (NNE) 08:22:48 436.795
COMPASS 1 05 Mar 08:17:12 08:17:26 10° 83° (E) 08:17:54 437.405
ISS 05 Mar 08:32:31 08:34:40 17° 143° (SE) 08:36:52 145.825
GOMX 1 05 Mar 08:40:07 08:43:46 25° 91° (E) 08:47:19 467.674
SEEDS 05 Mar 08:46:19 08:49:43 23° 92° (E) 08:53:11 437.485
CINEMA 3 05 Mar 08:49:11 08:50:51 12° 85° (E) 08:52:41 145.822/145.860
BRITE-PL 05 Mar 08:49:42 08:54:08 45° 97° (E) 08:58:16 437.365/2234.400
QB50P1 05 Mar 08:51:26 08:53:03 12° 55° (NE) 08:54:49 145.935-145.965
AO-7 05 Mar 08:51:43 08:55:45 14° 335° (NNW) 08:59:35 29.400- 29.500
CANX-2 05 Mar 08:53:55 08:57:48 34° 96° (E) 09:01:44 2200.000
QB50P2 05 Mar 08:55:53 08:57:53 13° 56° (NE) 09:00:02 145.880/145.840
DOVE 4 05 Mar 09:01:11 09:04:52 28° 93° (E) 09:08:29 437.250
DELFI C3 05 Mar 09:02:52 09:03:06 10° 84° (E) 09:03:33 145.870
HO-68 05 Mar 09:04:33 09:11:26 47° 98° (E) 09:18:21 435.675
UNISAT 6 05 Mar 09:04:45 09:08:13 24° 63° (ENE) 09:11:42 437.425
DUCHIFAT 1 05 Mar 09:07:41 09:10:15 16° 58° (ENE) 09:12:57 145.980
CUTE 1.7 + AOD 2 05 Mar 09:11:57 09:16:05 46° 98° (E) 09:20:12 437.475
Cubesat XI-IV 05 Mar 09:15:45 09:18:49 15° 309° (NW) 09:21:42 437.490
AIST 1 05 Mar 09:22:07 09:23:44 11° 304° (NW) 09:25:10
CUTE-I 05 Mar 09:24:11 09:26:49 14° 311° (NW) 09:29:16 437.470
TIGRISAT 05 Mar 09:27:47 09:31:45 36° 67° (ENE) 09:35:43 435.000
POPSAT HIP 1 05 Mar 09:29:21 09:32:47 24° 63° (ENE) 09:36:16 437.405
POLYITAN 1 05 Mar 09:30:18 09:33:46 25° 63° (ENE) 09:37:18 437.675
GONETS M04 05 Mar 09:30:21 09:39:05 74° 264° (W) 09:47:49
O/OREOS (USA 219) 05 Mar 09:36:31 09:41:05 74° 116° (ESE) 09:45:42 437.305
UWE-3 05 Mar 09:42:14 09:45:18 20° 90° (E) 09:48:28 435.000/436.395/437.385
ANTELSAT 05 Mar 09:42:46 09:46:58 50° 70° (ENE) 09:51:09 437.575/2403.000
AAUSAT CUBESAT 2 05 Mar 09:44:48 09:49:00 63° 102° (ESE) 09:53:10 437.432
COMPASS 1 05 Mar 09:49:44 09:53:59 79° 105° (ESE) 09:58:11 437.405
NANOSAT C BR1 05 Mar 09:50:46 09:54:41 36° 67° (ENE) 09:58:38 145.865
SO-50 05 Mar 09:54:11 09:59:03 60° 233° (SW) 10:03:55 436.795
Oscar 11 05 Mar 09:58:46 10:02:56 44° 98° (E) 10:07:06 145.826/435.025
RS-15 05 Mar 10:00:01 10:09:30 31° 254° (WSW) 10:18:57 29.354- 29.394
ISS 05 Mar 10:07:26 10:10:36 58° 162° (SSE) 10:13:47 145.825
DANDE 05 Mar 10:11:43 10:13:39 17° 65° (ENE) 10:15:33 436.750
GOMX 1 05 Mar 10:17:58 10:22:09 41° 292° (WNW) 10:26:07 467.674
BUGSAT 1 05 Mar 10:18:55 10:23:04 51° 70° (ENE) 10:27:14 437.445
SEEDS 05 Mar 10:21:43 10:25:46 44° 291° (WNW) 10:29:48 437.485
CUSAT 1 05 Mar 10:23:38 10:26:03 32° 71° (ENE) 10:28:28 437.405
QB50P1 05 Mar 10:23:59 10:28:16 74° 73° (ENE) 10:32:33 145.935-145.965
CINEMA 3 05 Mar 10:24:34 10:28:47 82° 288° (WNW) 10:32:56 145.822/145.860
CUBEBUG 2 05 Mar 10:25:21 10:29:29 60° 101° (E) 10:33:37 437.445
DX 1 05 Mar 10:28:12 10:32:22 41° 98° (E) 10:36:30 434.975-435.025
BRITE-PL 05 Mar 10:28:37 10:32:29 26° 298° (WNW) 10:36:03 437.365/2234.400
QB50P2 05 Mar 10:28:54 10:33:11 83° 74° (ENE) 10:37:29 145.880/145.840
CANX-2 05 Mar 10:29:57 10:33:43 31° 294° (WNW) 10:37:28 2200.000
HUMSAT D 05 Mar 10:32:03 10:35:38 28° 94° (E) 10:39:14 437.325/437.525
DELFI C3 05 Mar 10:34:58 10:39:05 82° 103° (ESE) 10:43:11 145.870
DOVE 4 05 Mar 10:38:49 10:42:48 36° 293° (WNW) 10:46:36 437.250
CUBEBUG 1 05 Mar 10:39:45 10:41:42 13° 85° (E) 10:43:49 437.445
UNISAT 6 05 Mar 10:40:36 10:44:49 47° 261° (W) 10:49:00 437.425
DUCHIFAT 1 05 Mar 10:41:20 10:45:38 78° 257° (WSW) 10:49:55 145.980
AISAT 05 Mar 10:45:17 10:49:10 29° 94° (E) 10:53:04 437.250
CUTE 1.7 + AOD 2 05 Mar 10:48:21 10:51:48 24° 297° (WNW) 10:55:12 437.475
FUNcube-1 05 Mar 10:49:39 10:53:49 73° 102° (ESE) 10:57:59 145.935
ZACube-1 05 Mar 10:52:01 10:56:12 78° 103° (ESE) 11:00:23 437.345
HO-68 05 Mar 10:52:25 10:59:15 47° 299° (WNW) 11:06:02 435.675
VELOX 1 05 Mar 10:53:16 10:57:19 33° 96° (E) 11:01:21 145.980
UKube-1 05 Mar 10:53:51 10:58:13 69° 103° (ESE) 11:02:32 .
POPSAT HIP 1 05 Mar 11:04:20 11:08:29 46° 261° (W) 11:12:38 437.405
TIGRISAT 05 Mar 11:04:46 11:08:36 29° 265° (W) 11:12:23 435.000
POLYITAN 1 05 Mar 11:05:24 11:09:32 45° 261° (W) 11:13:39 437.675
O/OREOS (USA 219) 05 Mar 11:17:25 11:21:03 22° 317° (NW) 11:24:39 437.305
UWE-3 05 Mar 11:18:09 11:22:11 49° 290° (WNW) 11:26:13 435.000/436.395/437.385
ESTCUBE 1 05 Mar 11:20:04 11:24:12 33° 95° (E) 11:28:19 437.505/2401.250
ANTELSAT 05 Mar 11:20:42 11:24:06 21° 269° (W) 11:27:22 437.575/2403.000
AAUSAT CUBESAT 2 05 Mar 11:21:18 11:24:17 19° 299° (WNW) 11:27:09 437.432
COMPASS 1 05 Mar 11:26:38 11:29:12 16° 301° (WNW) 11:31:39 437.405
NANOSAT C BR1 05 Mar 11:26:51 11:30:38 29° 266° (W) 11:34:22 145.865
GONETS M04 05 Mar 11:28:46 11:34:33 19° 286° (WNW) 11:39:58
50 SAT 05 Mar 11:32:36 11:36:35 82° 103° (ESE) 11:40:34 437.505
Oscar 11 05 Mar 11:35:20 11:38:56 26° 297° (WNW) 11:42:29 145.826/435.025
SO-50 05 Mar 11:37:22 11:38:46 11° 251° (WSW) 11:39:55 436.795
ISS 05 Mar 11:43:43 11:46:57 88° 13° (NNE) 11:50:11 145.825
Gurwin Techsat 1B 05 Mar 11:46:45 11:46:53 10° 45° (NE) 11:47:14 435.225
Oscar 19 05 Mar 11:46:55 11:51:06 26° 60° (ENE) 11:55:21 437.125/150
ITAMSAT 1 05 Mar 11:54:01 11:56:37 14° 50° (NE) 11:59:23 435.822/435.867
DANDE 05 Mar 11:55:04 11:56:56 17° 268° (W) 11:58:41 436.750
BUGSAT 1 05 Mar 11:55:34 11:58:52 21° 269° (W) 12:02:06 437.445
QB50P1 05 Mar 12:02:12 12:04:44 15° 273° (W) 12:07:06 145.935-145.965
CUBEBUG 2 05 Mar 12:02:55 12:05:52 19° 300° (WNW) 12:08:43 437.445
CINEMA 3 05 Mar 12:03:33 12:05:23 12° 305° (NW) 12:07:05 145.822/145.860
DX 1 05 Mar 12:04:44 12:08:29 28° 297° (WNW) 12:12:10 434.975-435.025
QB50P2 05 Mar 12:07:38 12:09:46 13° 274° (W) 12:11:44 145.880/145.840
HUMSAT D 05 Mar 12:07:43 12:11:29 35° 293° (WNW) 12:15:14 437.325/437.525
DELFI C3 05 Mar 12:11:28 12:13:47 15° 302° (WNW) 12:15:58 145.870
CUBEBUG 1 05 Mar 12:14:21 12:18:49 88° 286° (WNW) 12:23:13 437.445
DUCHIFAT 1 05 Mar 12:21:40 12:22:19 10° 277° (W) 12:22:43 145.980
AISAT 05 Mar 12:21:44 12:25:55 39° 293° (WNW) 12:30:01 437.250
FUNcube-1 05 Mar 12:27:07 12:29:44 16° 301° (WNW) 12:32:14 145.935
TISAT 1 05 Mar 12:27:39 12:31:31 34° 96° (E) 12:35:23 437.305
AO-7 05 Mar 12:29:28 12:34:17 17° 32° (NNE) 12:39:18 29.400- 29.500
ZACube-1 05 Mar 12:29:37 12:32:06 15° 302° (WNW) 12:34:28 437.345
VELOX 1 05 Mar 12:29:51 12:33:55 34° 295° (WNW) 12:37:55 145.980
UKube-1 05 Mar 12:30:54 12:33:57 18° 302° (WNW) 12:36:53 .
SPROUT 05 Mar 12:34:32 12:38:41 44° 98° (E) 12:42:48 437.525
HO-68 05 Mar 12:41:34 12:45:26 15° 322° (NW) 12:49:05 435.675
ESTCUBE 1 05 Mar 12:56:55 13:01:08 36° 294° (WNW) 13:05:17 437.505/2401.250
50 SAT 05 Mar 13:08:59 13:11:05 14° 302° (WNW) 13:13:04 437.505
ISS 05 Mar 13:20:07 13:23:16 51° 201° (SSW) 13:26:24 145.825
JAS-2 05 Mar 13:20:33 13:22:06 11° 37° (NE) 13:23:56 435.910
Gurwin Techsat 1B 05 Mar 13:20:41 13:25:41 44° 66° (ENE) 13:30:44 435.225
Oscar 19 05 Mar 13:25:06 13:30:10 58° 259° (W) 13:35:15 437.125/150
ITAMSAT 1 05 Mar 13:30:05 13:35:16 65° 70° (ENE) 13:40:29 435.822/435.867
SWISSCUBE 05 Mar 13:30:22 13:34:34 30° 94° (E) 13:38:49 437.505
BEESAT 05 Mar 13:38:21 13:42:39 32° 95° (E) 13:46:59 436.000
CUBEBUG 1 05 Mar 13:52:05 13:54:36 15° 304° (NW) 13:56:58 437.445
TISAT 1 05 Mar 14:03:33 14:07:19 31° 295° (WNW) 14:11:00 437.305
ITUPSAT 1 05 Mar 14:07:30 14:12:17 56° 101° (E) 14:17:02 437.325
HORYU 2 05 Mar 14:07:45 14:11:38 31° 64° (ENE) 14:15:34 437.375
SPROUT 05 Mar 14:11:03 14:14:36 25° 297° (WNW) 14:18:05 437.525
AO-7 05 Mar 14:17:27 14:25:13 46° 56° (NE) 14:33:02 29.400- 29.500
YUBILEINY 05 Mar 14:35:23 14:41:12 21° 75° (ENE) 14:47:24 435.215
STARS 05 Mar 14:35:49 14:38:39 17° 88° (E) 14:41:37 437.465
KKS-1 05 Mar 14:36:14 14:39:54 25° 92° (E) 14:43:36 437.445
ISS 05 Mar 14:57:19 14:59:08 14° 219° (SW) 15:00:53 145.825
JAS-2 05 Mar 15:00:02 15:05:22 39° 61° (ENE) 15:11:26 435.910
Gurwin Techsat 1B 05 Mar 15:00:58 15:05:49 34° 265° (W) 15:10:39 435.225
SWISSCUBE 05 Mar 15:08:02 15:12:37 44° 293° (WNW) 15:17:10 437.505
ITAMSAT 1 05 Mar 15:11:09 15:15:17 23° 270° (W) 15:19:19 435.822/435.867
BEESAT 05 Mar 15:16:06 15:20:37 40° 294° (WNW) 15:25:05 436.000
HORYU 2 05 Mar 15:44:08 15:48:15 37° 263° (W) 15:52:23 437.375
Cubesat XI-IV 05 Mar 15:45:33 15:48:01 14° 49° (NE) 15:50:40 437.490
ITUPSAT 1 05 Mar 15:45:56 15:49:54 25° 300° (WNW) 15:53:48 437.325
CUTE-I 05 Mar 15:53:03 15:55:55 15° 50° (NE) 15:58:57 437.470
M-CUBED/EXP-1 PRIME 05 Mar 16:01:21 16:02:22 11° 92° (E) 16:03:39 437.505
AO-7 05 Mar 16:09:46 16:17:58 57° 258° (WSW) 16:26:08 29.400- 29.500
MOZHAYETS 4 05 Mar 16:11:04 16:13:48 16° 86° (E) 16:16:43
STARS 05 Mar 16:11:16 16:15:39 66° 288° (WNW) 16:19:59 437.465
KKS-1 05 Mar 16:12:31 16:16:47 45° 292° (WNW) 16:21:00 437.445
O/OREOS (USA 219) 05 Mar 16:23:44 16:26:03 14° 33° (NNE) 16:28:28 437.305
YUBILEINY 05 Mar 16:28:02 16:36:46 80° 97° (E) 16:45:37 435.215
JAS-2 05 Mar 16:44:52 16:50:25 47° 264° (W) 16:56:40 435.910
BEESAT 3 05 Mar 16:54:49 16:58:31 33° 121° (ESE) 17:02:18 437.485
Cubesat XI-IV 05 Mar 17:21:53 17:27:10 59° 69° (ENE) 17:32:30 437.490
BEESAT 2 05 Mar 17:23:41 17:27:42 52° 125° (SE) 17:31:48 435.950
CUTE-I 05 Mar 17:29:49 17:35:09 67° 70° (ENE) 17:40:32 437.470
AUBIESAT-1 05 Mar 17:32:51 17:37:05 67° 109° (ESE) 17:41:38 437.475
M-CUBED/EXP-1 PRIME 05 Mar 17:33:44 17:37:58 75° 109° (ESE) 17:42:32 437.505
AIST 2 05 Mar 17:39:49 17:43:39 33° 121° (ESE) 17:47:33 435.215
AIST 1 05 Mar 17:42:24 17:46:43 49° 74° (ENE) 17:51:00
MOZHAYETS 4 05 Mar 17:47:01 17:51:41 78° 286° (WNW) 17:56:20
STARS 05 Mar 17:49:50 17:51:21 11° 307° (NW) 17:52:43 437.465
HO-68 05 Mar 17:54:29 17:59:00 19° 43° (NE) 18:03:44 435.675
O/OREOS (USA 219) 05 Mar 18:02:02 18:06:35 55° 56° (NE) 18:11:06 437.305
VERMONT LUNAR 05 Mar 18:07:28 18:09:03 13° 172° (S) 18:10:39 437.305
STRAND 1 05 Mar 18:07:33 18:09:49 13° 83° (E) 18:12:18 437.568
AO-7 05 Mar 18:09:11 18:12:59 13° 282° (WNW) 18:16:15 29.400- 29.500
CUBESAT XI-V 05 Mar 18:18:40 18:22:29 24° 91° (E) 18:26:22 437.345
GOMX 1 05 Mar 18:18:54 18:20:21 11° 52° (NE) 18:21:59 467.674
YUBILEINY 05 Mar 18:27:03 18:34:43 31° 303° (WNW) 18:42:16 435.215
BRITE-PL 05 Mar 18:28:37 18:32:18 19° 58° (ENE) 18:35:59 437.365/2234.400
BEESAT 3 05 Mar 18:32:35 18:36:33 43° 321° (NW) 18:40:34 437.485
PHONESAT 2.4 05 Mar 18:35:17 18:36:57 13° 169° (S) 18:38:38 2401.200-2431.200
DOVE 4 05 Mar 18:37:59 18:39:15 11° 53° (NE) 18:40:42 437.250
CUTE 1.7 + AOD 2 05 Mar 18:38:03 18:39:01 11° 54° (NE) 18:40:09 437.475
BEESAT 2 05 Mar 19:02:19 19:06:06 32° 326° (NNW) 19:09:53 435.950
Cubesat XI-IV 05 Mar 19:03:13 19:07:42 26° 269° (W) 19:12:07 437.490
PCSat 05 Mar 19:07:15 19:08:56 12° 103° (ESE) 19:10:55 145.827
AAUSAT CUBESAT 2 05 Mar 19:08:13 19:10:04 13° 57° (ENE) 19:12:04 437.432
AUBIESAT-1 05 Mar 19:08:28 19:11:39 21° 305° (NW) 19:14:55 437.475
M-CUBED/EXP-1 PRIME 05 Mar 19:09:34 19:12:34 19° 306° (NW) 19:15:37 437.505
CUTE-I 05 Mar 19:11:32 19:15:47 23° 271° (W) 19:19:55 437.470
COMPASS 1 05 Mar 19:12:48 19:15:16 16° 59° (ENE) 19:17:52 437.405
PRISM 05 Mar 19:14:20 19:18:35 71° 103° (ESE) 19:22:49 437.425
AIST 2 05 Mar 19:18:02 19:22:11 45° 321° (NW) 19:26:22 435.215
AIST 1 05 Mar 19:20:42 19:24:07 21° 273° (W) 19:27:23
MOZHAYETS 4 05 Mar 19:25:46 19:28:15 14° 305° (NW) 19:30:35
Oscar 11 05 Mar 19:26:11 19:27:29 11° 54° (NE) 19:28:56 145.826/435.025
HO-68 05 Mar 19:38:30 19:45:30 61° 65° (ENE) 19:52:34 435.675
O/OREOS (USA 219) 05 Mar 19:42:02 19:45:43 23° 256° (WSW) 19:49:16 437.305
SEEDS 05 Mar 19:43:44 19:47:28 33° 66° (ENE) 19:51:16 437.485
VERMONT LUNAR 05 Mar 19:44:33 19:46:04 12° 189° (S) 19:47:34 437.305
STRAND 1 05 Mar 19:44:48 19:50:00 78° 104° (ESE) 19:55:09 437.568
CANX-2 05 Mar 19:52:06 19:56:09 49° 70° (ENE) 20:00:15 2200.000
GOMX 1 05 Mar 19:52:34 19:57:39 55° 71° (ENE) 20:02:29 467.674
CUBEBUG 2 05 Mar 19:54:29 19:57:00 16° 58° (ENE) 19:59:36 437.445
DELFI C3 05 Mar 19:55:08 19:57:23 15° 58° (ENE) 19:59:46 145.870
CINEMA 3 05 Mar 19:55:20 19:59:04 25° 64° (ENE) 20:02:45 145.822/145.860
CUBESAT XI-V 05 Mar 19:55:39 20:00:15 51° 291° (WNW) 20:04:48 437.345
DX 1 05 Mar 19:55:51 19:57:40 13° 54° (NE) 19:59:38 434.975-435.025
BRITE-PL 05 Mar 20:04:45 20:10:19 88° 255° (WSW) 20:15:34 437.365/2234.400
CUTE 1.7 + AOD 2 05 Mar 20:10:02 20:14:13 67° 73° (ENE) 20:18:26 437.475
DOVE 4 05 Mar 20:11:22 20:16:15 57° 71° (ENE) 20:20:54 437.250
PHONESAT 2.4 05 Mar 20:12:35 20:14:31 14° 186° (S) 20:16:27 2401.200-2431.200
BEESAT 3 05 Mar 20:12:56 20:15:39 16° 344° (NNW) 20:18:20 437.485
FUNcube-1 05 Mar 20:16:24 20:19:04 17° 59° (ENE) 20:21:50 145.935
ZACube-1 05 Mar 20:18:46 20:21:35 18° 60° (ENE) 20:24:30 437.345
UKube-1 05 Mar 20:19:38 20:22:36 18° 58° (ENE) 20:25:39 .
VELOX 1 05 Mar 20:23:41 20:24:40 11° 52° (NE) 20:25:50 145.980
AAUSAT CUBESAT 2 05 Mar 20:40:58 20:45:07 86° 80° (E) 20:49:19 437.432
BEESAT 2 05 Mar 20:43:01 20:45:27 15° 349° (N) 20:47:53 435.950
GONETS M04 05 Mar 20:43:12 20:50:08 29° 80° (E) 20:57:18
UWE-3 05 Mar 20:44:30 20:48:24 33° 67° (ENE) 20:52:15 435.000/436.395/437.385
PCSat 05 Mar 20:46:05 20:51:25 63° 122° (ESE) 20:56:49 145.827
COMPASS 1 05 Mar 20:46:21 20:50:30 76° 258° (WSW) 20:54:42 437.405
PRISM 05 Mar 20:50:48 20:53:39 17° 302° (WNW) 20:56:24 437.425
50 SAT 05 Mar 20:51:41 20:53:46 14° 58° (ENE) 20:55:58 437.505
ESTCUBE 1 05 Mar 20:52:21 20:53:16 11° 51° (NE) 20:54:22 437.505/2401.250
Oscar 11 05 Mar 20:58:40 21:02:56 68° 73° (ENE) 21:07:14 145.826/435.025
AIST 2 05 Mar 20:58:50 21:01:47 17° 343° (NNW) 21:04:43 435.215
SEEDS 05 Mar 21:19:34 21:23:19 31° 265° (W) 21:27:04 437.485
STRAND 1 05 Mar 21:24:52 21:28:42 21° 304° (WNW) 21:32:25 437.568
HO-68 05 Mar 21:27:12 21:33:41 35° 266° (W) 21:40:08 435.675
DELFI C3 05 Mar 21:28:04 21:32:06 78° 256° (WSW) 21:36:11 145.870
CUBEBUG 2 05 Mar 21:28:48 21:33:14 83° 256° (WSW) 21:37:33 437.445
DX 1 05 Mar 21:28:51 21:33:13 73° 72° (ENE) 21:37:38 434.975-435.025
CANX-2 05 Mar 21:29:07 21:32:24 21° 270° (W) 21:35:37 2200.000
HUMSAT D 05 Mar 21:29:11 21:33:06 41° 69° (ENE) 21:37:01 437.325/437.525
CINEMA 3 05 Mar 21:31:34 21:36:06 49° 261° (W) 21:40:27 145.822/145.860
GOMX 1 05 Mar 21:31:43 21:36:05 26° 268° (W) 21:40:11 467.674
CUBEBUG 1 05 Mar 21:40:38 21:44:05 23° 61° (ENE) 21:47:38 437.445
BRITE-PL 05 Mar 21:46:04 21:49:34 16° 275° (W) 21:52:44 437.365/2234.400
CUTE 1.7 + AOD 2 05 Mar 21:48:00 21:50:40 16° 273° (W) 21:53:12 437.475
AISAT 05 Mar 21:48:15 21:52:37 51° 69° (ENE) 21:57:00 437.250
DOVE 4 05 Mar 21:50:22 21:54:22 23° 269° (W) 21:58:06 437.250
FUNcube-1 05 Mar 21:50:42 21:55:00 73° 256° (WSW) 21:59:15 145.935
BEESAT 3 05 Mar 21:53:01 21:55:15 14° 7° (N) 21:57:31 437.485
ZACube-1 05 Mar 21:53:18 21:57:36 68° 258° (WSW) 22:01:49 437.345
UKube-1 05 Mar 21:53:59 21:58:20 70° 257° (WSW) 22:02:42 .
VELOX 1 05 Mar 21:56:00 22:00:25 59° 70° (ENE) 22:04:51 145.980
SPROUT 05 Mar 22:01:17 22:02:43 12° 54° (NE) 22:04:19 437.525
RS-15 05 Mar 22:18:38 22:27:40 33° 108° (ESE) 22:37:06 29.354- 29.394
AAUSAT CUBESAT 2 05 Mar 22:19:43 22:21:28 12° 275° (W) 22:23:03 437.432
UWE-3 05 Mar 22:21:03 22:24:59 32° 265° (W) 22:28:49 435.000/436.395/437.385
BEESAT 2 05 Mar 22:22:39 22:25:11 15° 13° (NNE) 22:27:45 435.950
DUCHIFAT 1 05 Mar 22:22:52 22:24:27 12° 85° (E) 22:26:12 145.980
50 SAT 05 Mar 22:24:18 22:28:17 79° 256° (WSW) 22:32:16 437.505
ESTCUBE 1 05 Mar 22:24:50 22:29:17 57° 70° (ENE) 22:33:48 437.505/2401.250
UNISAT 6 05 Mar 22:27:20 22:30:47 23° 92° (E) 22:34:18 437.425
PCSat 05 Mar 22:30:14 22:35:13 35° 324° (NW) 22:40:12 145.827
Oscar 11 05 Mar 22:36:53 22:39:39 16° 273° (W) 22:42:17 145.826/435.025
GONETS M04 05 Mar 22:37:31 22:46:13 79° 282° (WNW) 22:54:59
AIST 2 05 Mar 22:39:28 22:41:57 15° 7° (N) 22:44:27 435.215
POPSAT HIP 1 05 Mar 22:44:51 22:47:56 20° 90° (E) 22:51:06 437.405
POLYITAN 1 05 Mar 22:46:06 22:49:17 21° 91° (E) 22:52:31 437.675
TIGRISAT 05 Mar 22:50:21 22:54:19 36° 97° (E) 22:58:21 435.000
HUMSAT D 05 Mar 23:05:36 23:09:04 24° 268° (W) 23:12:27 437.325/437.525
ANTELSAT 05 Mar 23:05:49 23:10:02 52° 100° (E) 23:14:19 437.575/2403.000
NANOSAT C BR1 05 Mar 23:06:10 23:09:56 31° 95° (E) 23:13:42 145.865
DX 1 05 Mar 23:07:18 23:10:03 16° 272° (W) 23:12:41 434.975-435.025
SWISSCUBE 05 Mar 23:08:02 23:09:48 12° 51° (NE) 23:11:45 437.505
CUBEBUG 2 05 Mar 23:09:20 23:10:43 11° 276° (W) 23:11:52 437.445
BEESAT 05 Mar 23:15:37 23:17:41 13° 52° (NE) 23:19:56 436.000
CUBEBUG 1 05 Mar 23:15:48 23:20:11 54° 259° (W) 23:24:36 437.445
TISAT 1 05 Mar 23:24:59 23:29:10 53° 70° (ENE) 23:33:21 437.305
AISAT 05 Mar 23:25:56 23:29:33 23° 269° (W) 23:33:05 437.250
DANDE 05 Mar 23:28:27 23:33:26 30° 96° (E) 23:37:24 436.750
BEESAT 3 05 Mar 23:31:02 23:34:38 27° 31° (NNE) 23:38:13 437.485
BUGSAT 1 05 Mar 23:31:29 23:35:27 41° 98° (E) 23:39:21 437.445
SPROUT 05 Mar 23:33:47 23:38:06 69° 73° (ENE) 23:42:25 437.525
VELOX 1 05 Mar 23:34:03 23:37:24 20° 270° (W) 23:40:41 145.980
CUSAT 1 05 Mar 23:37:06 23:42:05 40° 98° (E) 23:45:55 437.405
QB50P1 05 Mar 23:39:44 23:43:59 65° 103° (ESE) 23:48:10 145.935-145.965
ITUPSAT 1 05 Mar 23:43:37 23:47:04 21° 58° (ENE) 23:50:38 437.325
QB50P2 05 Mar 23:44:52 23:49:08 74° 104° (ESE) 23:53:21 145.880/145.840
DUCHIFAT 1 05 Mar 23:56:45 00:01:01 88° 286° (WNW) 00:05:13 145.980
BEESAT 2 06 Mar 00:00:35 00:04:28 36° 36° (NE) 00:08:21 435.950
ESTCUBE 1 06 Mar 00:03:06 00:06:34 21° 270° (W) 00:09:58 437.505/2401.250
UNISAT 6 06 Mar 00:03:42 00:07:50 46° 291° (WNW) 00:11:59 437.425
SO-50 06 Mar 00:16:26 00:18:22 13° 110° (ESE) 00:20:30 436.795
PCSat 06 Mar 00:16:41 00:20:15 17° 349° (NNW) 00:23:47 145.827
AIST 2 06 Mar 00:18:06 00:21:52 28° 31° (NNE) 00:25:36 435.215
POPSAT HIP 1 06 Mar 00:20:02 00:24:11 52° 290° (WNW) 00:28:17 437.405
POLYITAN 1 06 Mar 00:21:25 00:25:32 50° 290° (WNW) 00:29:37 437.675
TIGRISAT 06 Mar 00:27:18 00:31:02 30° 295° (WNW) 00:34:47 435.000
RS-15 06 Mar 00:27:59 00:38:56 87° 313° (NW) 00:50:12 29.354- 29.394
YUBILEINY 06 Mar 00:35:29 00:40:36 17° 42° (NE) 00:46:03 435.215
GONETS M04 06 Mar 00:38:03 00:44:48 23° 309° (NW) 00:51:22
NANOSAT C BR1 06 Mar 00:42:00 00:45:50 34° 294° (WNW) 00:49:37 145.865
SWISSCUBE 06 Mar 00:42:06 00:46:48 61° 71° (ENE) 00:51:35 437.505
ANTELSAT 06 Mar 00:43:14 00:46:36 22° 298° (WNW) 00:49:55 437.575/2403.000
BEESAT 06 Mar 00:50:01 00:54:45 67° 71° (ENE) 00:59:33 436.000
TISAT 1 06 Mar 01:02:03 01:05:18 20° 269° (W) 01:08:29 437.305
BUGSAT 1 06 Mar 01:07:19 01:10:48 26° 297° (WNW) 01:14:11 437.445
BEESAT 3 06 Mar 01:08:56 01:13:05 67° 232° (SW) 01:17:09 437.485
DANDE 06 Mar 01:11:19 01:16:45 41° 287° (WNW) 01:20:51 436.750
SPROUT 06 Mar 01:11:56 01:14:43 16° 272° (W) 01:17:23 437.525
QB50P1 06 Mar 01:16:30 01:19:28 18° 301° (WNW) 01:22:19 145.935-145.965
ITUPSAT 1 06 Mar 01:19:43 01:24:31 72° 257° (WSW) 01:29:22 437.325
CUSAT 1 06 Mar 01:20:38 01:24:58 26° 290° (WNW) 01:28:22 437.405
QB50P2 06 Mar 01:21:51 01:24:35 17° 302° (WNW) 01:27:12 145.880/145.840
Oscar 19 06 Mar 01:31:11 01:35:48 33° 95° (E) 01:40:27 437.125/150
Gurwin Techsat 1B 06 Mar 01:33:44 01:34:55 11° 81° (E) 01:36:24 435.225
DUCHIFAT 1 06 Mar 01:34:04 01:36:16 14° 304° (NW) 01:38:20 145.980
STARS 06 Mar 01:37:44 01:41:35 30° 64° (ENE) 01:45:29 437.465
ITAMSAT 1 06 Mar 01:38:44 01:41:40 15° 85° (E) 01:44:47 435.822/435.867
BEESAT 2 06 Mar 01:38:46 01:42:45 43° 237° (WSW) 01:46:39 435.950
KKS-1 06 Mar 01:39:26 01:43:41 44° 68° (ENE) 01:47:58 437.445
SO-50 06 Mar 01:53:29 01:58:07 71° 129° (SE) 02:02:56 436.795
AIST 2 06 Mar 01:56:34 02:00:51 68° 232° (SW) 02:05:03 435.215
PCSat 06 Mar 02:02:04 02:05:45 18° 15° (NNE) 02:09:28 145.827
SWISSCUBE 06 Mar 02:21:27 02:25:08 21° 270° (W) 02:28:44 437.505
BEESAT 06 Mar 02:29:38 02:33:07 19° 271° (W) 02:36:31 436.000
YUBILEINY 06 Mar 02:31:26 02:40:06 54° 70° (ENE) 02:48:44 435.215
BEESAT 3 06 Mar 02:49:57 02:50:26 10° 250° (WSW) 02:50:44 437.485
